^^
Saratoga-Weather Station Historical Data
Daily Summary for March 12, 2020 Units:  Metric    English   Both
Daily Weekly Monthly Yearly Custom
  High: Low: Average:
Temperature: 14.2 °C 2.3 °C 8.2 °C
Dew Point: 4.3 °C -0.4 °C 2.1 °C
Humidity: 95% 45% 68%
Wind Speed: 13km/h 0km/h 2.5km/h
Wind Gust: 14.5km/h - -
Wind- - South
Pressure: 1019.3 hPa 1013.2 hPa -
Precipitation: 0.2 mm    
Historical Graphs
 
 
Tabular Data for March 12, 2020
Time Temperature Dew Point Pressure Wind Wind Speed Wind Gust Humidity Rainfall Rate (Hourly) solar
00:02 4.3 °C 3.6 °C 1015.2 hPa Calm     95% 0.0 mm 0 W/m2
00:07 4.3 °C 3.6 °C 1015.2 hPa Calm     95% 0.0 mm 0 W/m2
00:12 4.2 °C 3.5 °C 1015.2 hPa Calm     95% 0.0 mm 0 W/m2
00:17 4.1 °C 3.4 °C 1015.6 hPa Calm     95% 0.0 mm 0 W/m2
00:22 4.1 °C 3.4 °C 1015.6 hPa Calm     95% 0.0 mm 0 W/m2
00:27 3.9 °C 3.2 °C 1015.6 hPa Calm     95% 0.0 mm 0 W/m2
00:32 3.8 °C 3.1 °C 1015.6 hPa WSW 1.4 km/h 3.2 km/h 95% 0.0 mm 0 W/m2
00:37 3.7 °C 3 °C 1015.9 hPa WSW 1.4 km/h 3.2 km/h 95% 0.0 mm 0 W/m2
00:42 3.6 °C 2.9 °C 1015.9 hPa Calm   3.2 km/h 95% 0.0 mm 0 W/m2
00:47 3.6 °C 2.9 °C 1015.9 hPa Calm   3.2 km/h 95% 0.0 mm 0 W/m2
00:52 3.4 °C 2.7 °C 1015.9 hPa WSW 3.2 km/h 3.2 km/h 95% 0.0 mm 0 W/m2
00:57 3.3 °C 2.6 °C 1015.9 hPa Calm   1.6 km/h 95% 0.0 mm 0 W/m2
01:03 3.3 °C 2.6 °C 1015.9 hPa Calm     95% 0.0 mm 0 W/m2
01:08 3.3 °C 2.6 °C 1016.3 hPa WSW 1.4 km/h 1.6 km/h 95% 0.0 mm 0 W/m2
01:13 3.2 °C 2.5 °C 1016.3 hPa WSW 1.4 km/h 4.8 km/h 95% 0.0 mm 0 W/m2
01:18 3.1 °C 2.4 °C 1016.3 hPa WSW 3.2 km/h 3.2 km/h 95% 0.0 mm 0 W/m2
01:23 3.1 °C 2.4 °C 1016.3 hPa WSW 3.2 km/h 4.8 km/h 95% 0.0 mm 0 W/m2
01:28 3 °C 2.3 °C 1016.3 hPa SSW 1.4 km/h 4.8 km/h 95% 0.0 mm 0 W/m2
01:33 2.9 °C 2.2 °C 1016.3 hPa SSW 1.4 km/h 1.6 km/h 95% 0.0 mm 0 W/m2
01:38 2.8 °C 2.1 °C 1016.6 hPa Calm   4.8 km/h 95% 0.0 mm 0 W/m2
01:43 2.8 °C 2.1 °C 1016.6 hPa SSW 1.4 km/h 1.6 km/h 95% 0.0 mm 0 W/m2
01:48 2.8 °C 2.1 °C 1016.6 hPa Calm   1.6 km/h 95% 0.0 mm 0 W/m2
01:53 2.7 °C 2 °C 1016.6 hPa SSW 1.4 km/h 1.6 km/h 95% 0.0 mm 0 W/m2
01:58 2.8 °C 2.1 °C 1016.6 hPa SSW 3.2 km/h 3.2 km/h 95% 0.2 mm 0 W/m2
02:03 2.7 °C 2 °C 1016.6 hPa SSW 3.2 km/h 3.2 km/h 95% 0.2 mm 0 W/m2
02:08 2.7 °C 2 °C 1016.6 hPa SSW 1.4 km/h 3.2 km/h 95% 0.2 mm 0 W/m2
02:13 2.6 °C 1.9 °C 1016.6 hPa SSW 1.4 km/h 3.2 km/h 95% 0.2 mm 0 W/m2
02:18 2.6 °C 1.9 °C 1016.9 hPa SSW 1.4 km/h 3.2 km/h 95% 0.2 mm 0 W/m2
02:23 2.5 °C 1.8 °C 1016.6 hPa SSW 1.4 km/h 3.2 km/h 95% 0.2 mm 0 W/m2
02:28 2.4 °C 1.7 °C 1016.9 hPa WNW 4.7 km/h 4.8 km/h 95% 0.2 mm 0 W/m2
02:33 2.6 °C 1.9 °C 1016.9 hPa NNE 1.4 km/h 6.4 km/h 95% 0.2 mm 0 W/m2
02:39 2.8 °C 1.9 °C 1016.9 hPa WSW 1.4 km/h 4.8 km/h 94% 0.2 mm 0 W/m2
02:44 3.1 °C 2.1 °C 1016.9 hPa Calm   1.6 km/h 93% 0.2 mm 0 W/m2
02:49 3.1 °C 1.9 °C 1016.9 hPa West 3.2 km/h 6.4 km/h 92% 0.2 mm 0 W/m2
02:54 3.2 °C 1.9 °C 1016.9 hPa West 4.7 km/h 4.8 km/h 91% 0.2 mm 0 W/m2
02:59 3.2 °C 1.7 °C 1016.9 hPa SW 3.2 km/h 6.4 km/h 90% 0.0 mm 0 W/m2
03:04 3.2 °C 1.6 °C 1016.9 hPa Calm   1.6 km/h 89% 0.0 mm 0 W/m2
03:09 3.3 °C 1.5 °C 1016.9 hPa NW 1.4 km/h 1.6 km/h 88% 0.0 mm 0 W/m2
03:14 3.3 °C 1.3 °C 1016.9 hPa West 1.4 km/h 4.8 km/h 87% 0.0 mm 0 W/m2
03:19 3.2 °C 1.1 °C 1017.3 hPa West 6.4 km/h 6.4 km/h 86% 0.0 mm 0 W/m2
03:24 3.3 °C 1 °C 1017.3 hPa NNW 6.4 km/h 9.7 km/h 85% 0.0 mm 0 W/m2
03:29 3.4 °C 0.8 °C 1017.3 hPa West 3.2 km/h 4.8 km/h 83% 0.0 mm 0 W/m2
03:34 3.4 °C 0.6 °C 1017.3 hPa West 4.7 km/h 9.7 km/h 82% 0.0 mm 0 W/m2
03:39 3.4 °C 0.6 °C 1017.3 hPa West 1.4 km/h 4.8 km/h 82% 0.0 mm 0 W/m2
03:44 3.4 °C 0.6 °C 1017.3 hPa WNW 4.7 km/h 8 km/h 82% 0.0 mm 0 W/m2
03:49 3.5 °C 0.4 °C 1017.3 hPa WNW 4.7 km/h 6.4 km/h 80% 0.0 mm 0 W/m2
03:54 3.5 °C 0.4 °C 1017.3 hPa WSW 4.7 km/h 4.8 km/h 80% 0.0 mm 0 W/m2
03:59 3.4 °C 0.3 °C 1017.3 hPa NNW 3.2 km/h 6.4 km/h 80% 0.0 mm 0 W/m2
04:04 3.4 °C 0.3 °C 1017.3 hPa West 4.7 km/h 4.8 km/h 80% 0.0 mm 0 W/m2
04:10 3.3 °C 0 °C 1017.6 hPa West 4.7 km/h 6.4 km/h 79% 0.0 mm 0 W/m2
04:15 3.3 °C 0 °C 1017.6 hPa NW 1.4 km/h 4.8 km/h 79% 0.0 mm 0 W/m2
04:20 3.3 °C 0.2 °C 1017.6 hPa WNW 1.4 km/h 6.4 km/h 80% 0.0 mm 0 W/m2
04:25 3.2 °C 0.1 °C 1017.6 hPa West 1.4 km/h 6.4 km/h 80% 0.0 mm 0 W/m2
04:30 3.2 °C 0.1 °C 1017.6 hPa NNW 1.4 km/h 4.8 km/h 80% 0.0 mm 0 W/m2
04:35 3.3 °C -0.2 °C 1017.6 hPa WSW 3.2 km/h 4.8 km/h 78% 0.0 mm 0 W/m2
04:40 3.3 °C 0 °C 1017.6 hPa WNW 1.4 km/h 6.4 km/h 79% 0.0 mm 0 W/m2
04:45 3.3 °C -0.2 °C 1017.6 hPa NW 1.4 km/h 11.3 km/h 78% 0.0 mm 0 W/m2
04:50 3.3 °C -0.2 °C 1017.6 hPa West 4.7 km/h 4.8 km/h 78% 0.0 mm 0 W/m2
04:55 3.2 °C -0.1 °C 1017.6 hPa West 3.2 km/h 4.8 km/h 79% 0.0 mm 0 W/m2
05:00 3.2 °C -0.1 °C 1018.0 hPa WNW 1.4 km/h 4.8 km/h 79% 0.0 mm 0 W/m2
05:05 3.1 °C 0 °C 1018.0 hPa WNW 4.7 km/h 8 km/h 80% 0.0 mm 0 W/m2
05:10 3 °C -0.3 °C 1018.0 hPa NW 1.4 km/h 3.2 km/h 79% 0.0 mm 0 W/m2
05:15 3 °C -0.3 °C 1018.0 hPa WNW 3.2 km/h 3.2 km/h 79% 0.0 mm 0 W/m2
05:20 2.9 °C -0.4 °C 1018.0 hPa WNW 3.2 km/h 6.4 km/h 79% 0.0 mm 0 W/m2
05:25 3 °C -0.3 °C 1018.0 hPa WSW 3.2 km/h 4.8 km/h 79% 0.0 mm 0 W/m2
05:30 2.9 °C -0.2 °C 1018.0 hPa WSW 1.4 km/h 4.8 km/h 80% 0.0 mm 0 W/m2
05:35 2.9 °C -0.4 °C 1018.0 hPa NW 3.2 km/h 4.8 km/h 79% 0.0 mm 0 W/m2
05:40 2.9 °C -0.4 °C 1018.0 hPa West 3.2 km/h 4.8 km/h 79% 0.0 mm 0 W/m2
05:45 2.9 °C -0.4 °C 1018.3 hPa Calm   3.2 km/h 79% 0.0 mm 0 W/m2
05:50 2.8 °C -0.1 °C 1018.3 hPa West 1.4 km/h 1.6 km/h 81% 0.0 mm 0 W/m2
05:55 2.7 °C -0.1 °C 1018.3 hPa South 1.4 km/h 4.8 km/h 82% 0.0 mm 0 W/m2
06:00 2.6 °C 0 °C 1018.3 hPa SSE 6.4 km/h 6.4 km/h 83% 0.0 mm 5 W/m2
06:05 2.4 °C 0 °C 1018.3 hPa SSE 1.4 km/h 3.2 km/h 84% 0.0 mm 7 W/m2
06:10 2.4 °C 0.1 °C 1018.3 hPa SW 1.4 km/h 6.4 km/h 85% 0.0 mm 11 W/m2
06:15 2.3 °C 0.2 °C 1018.3 hPa SW 1.4 km/h 3.2 km/h 86% 0.0 mm 12 W/m2
06:20 2.3 °C 0 °C 1018.3 hPa ENE 3.2 km/h 6.4 km/h 85% 0.0 mm 14 W/m2
06:25 2.3 °C -0.3 °C 1018.6 hPa SE 1.4 km/h 3.2 km/h 83% 0.0 mm 16 W/m2
06:30 2.4 °C 0 °C 1018.6 hPa ENE 1.4 km/h 1.6 km/h 84% 0.0 mm 19 W/m2
06:35 2.4 °C 0 °C 1018.6 hPa West 1.4 km/h 3.2 km/h 84% 0.0 mm 21 W/m2
06:40 2.5 °C -0.1 °C 1018.6 hPa Calm   1.6 km/h 83% 0.0 mm 23 W/m2
06:45 2.6 °C 0 °C 1018.6 hPa Calm   1.6 km/h 83% 0.0 mm 25 W/m2
06:50 2.6 °C 0.2 °C 1018.6 hPa SE 1.4 km/h 1.6 km/h 84% 0.0 mm 25 W/m2
06:55 2.6 °C 0 °C 1018.6 hPa East 1.4 km/h 3.2 km/h 83% 0.0 mm 26 W/m2
07:00 2.7 °C -0.2 °C 1018.6 hPa NNE 1.4 km/h 6.4 km/h 81% 0.0 mm 28 W/m2
07:05 2.9 °C -0.2 °C 1019.0 hPa East 1.4 km/h 4.8 km/h 80% 0.0 mm 30 W/m2
07:10 3 °C -0.3 °C 1019.0 hPa East 3.2 km/h 9.7 km/h 79% 0.0 mm 30 W/m2
07:15 3.1 °C -0.2 °C 1019.0 hPa NNW 1.4 km/h 4.8 km/h 79% 0.0 mm 32 W/m2
07:20 3.2 °C -0.1 °C 1019.0 hPa ESE 3.2 km/h 9.7 km/h 79% 0.0 mm 33 W/m2
07:25 3.3 °C -0.2 °C 1019.0 hPa NW 3.2 km/h 6.4 km/h 78% 0.0 mm 33 W/m2
07:30 3.4 °C -0.1 °C 1019.0 hPa NNW 7.9 km/h 8 km/h 78% 0.0 mm 35 W/m2
07:35 3.6 °C 0.1 °C 1019.0 hPa Calm   1.6 km/h 78% 0.0 mm 37 W/m2
07:40 3.7 °C 0.2 °C 1019.0 hPa NE 3.2 km/h 4.8 km/h 78% 0.0 mm 39 W/m2
07:45 3.8 °C 0.3 °C 1019.0 hPa WSW 4.7 km/h 6.4 km/h 78% 0.0 mm 39 W/m2
07:50 3.9 °C 0.2 °C 1019.0 hPa NNW 1.4 km/h 3.2 km/h 77% 0.0 mm 141 W/m2
07:55 4.1 °C 0.3 °C 1019.0 hPa WNW 1.4 km/h 6.4 km/h 76% 0.0 mm 253 W/m2
08:00 4.3 °C 0.6 °C 1019.3 hPa NW 1.4 km/h 4.8 km/h 77% 0.0 mm 265 W/m2
08:05 4.6 °C 0.7 °C 1019.3 hPa Calm   4.8 km/h 76% 0.0 mm 279 W/m2
08:10 4.8 °C 0.9 °C 1019.3 hPa NW 1.4 km/h 4.8 km/h 76% 0.0 mm 295 W/m2
08:15 5 °C 0.9 °C 1019.3 hPa NNW 1.4 km/h 4.8 km/h 75% 0.0 mm 309 W/m2
08:20 5.2 °C 0.9 °C 1019.3 hPa NW 1.4 km/h 8 km/h 74% 0.0 mm 322 W/m2
08:25 5.3 °C 1 °C 1019.3 hPa WNW 3.2 km/h 6.4 km/h 74% 0.0 mm 336 W/m2
08:30 5.4 °C 1.5 °C 1019.3 hPa Calm   3.2 km/h 76% 0.0 mm 352 W/m2
08:35 5.6 °C 1.3 °C 1019.3 hPa NNW 1.4 km/h 6.4 km/h 74% 0.0 mm 366 W/m2
08:40 5.8 °C 1.1 °C 1019.3 hPa NNE 1.4 km/h 3.2 km/h 72% 0.0 mm 380 W/m2
08:45 6.1 °C 1.4 °C 1019.3 hPa NNE 1.4 km/h 4.8 km/h 72% 0.0 mm 392 W/m2
08:50 6.3 °C 1.4 °C 1019.3 hPa Calm   9.7 km/h 71% 0.0 mm 404 W/m2
08:55 6.5 °C 1.6 °C 1019.3 hPa SSE 3.2 km/h 6.4 km/h 71% 0.0 mm 420 W/m2
09:00 6.6 °C 1.3 °C 1019.3 hPa East 3.2 km/h 4.8 km/h 69% 0.0 mm 432 W/m2
09:05 6.8 °C 1.7 °C 1019.3 hPa North 3.2 km/h 4.8 km/h 70% 0.0 mm 446 W/m2
09:10 6.9 °C 1.6 °C 1019.3 hPa ENE 1.4 km/h 3.2 km/h 69% 0.0 mm 459 W/m2
09:15 7.1 °C 1.6 °C 1019.3 hPa ESE 4.7 km/h 12.9 km/h 68% 0.0 mm 471 W/m2
09:20 7.2 °C 1.7 °C 1019.3 hPa ESE 4.7 km/h 6.4 km/h 68% 0.0 mm 485 W/m2
09:25 7.3 °C 1.8 °C 1019.3 hPa ENE 4.7 km/h 12.9 km/h 68% 0.0 mm 497 W/m2
09:30 7.5 °C 2.2 °C 1019.3 hPa NNW 6.4 km/h 8 km/h 69% 0.0 mm 510 W/m2
09:36 7.7 °C 2.2 °C 1019.3 hPa NNE 4.7 km/h 8 km/h 68% 0.0 mm 524 W/m2
09:41 7.9 °C 2.2 °C 1019.3 hPa ENE 4.7 km/h 6.4 km/h 67% 0.0 mm 533 W/m2
09:46 7.9 °C 2.4 °C 1019.3 hPa ENE 1.4 km/h 6.4 km/h 68% 0.0 mm 547 W/m2
09:51 8 °C 2.5 °C 1019.3 hPa ENE 6.4 km/h 9.7 km/h 68% 0.0 mm 559 W/m2
09:56 8.2 °C 2.6 °C 1019.0 hPa NE 3.2 km/h 4.8 km/h 68% 0.0 mm 571 W/m2
10:01 8.3 °C 2.7 °C 1019.0 hPa ESE 1.4 km/h 3.2 km/h 68% 0.0 mm 584 W/m2
10:06 8.6 °C 2.8 °C 1019.0 hPa NE 1.4 km/h 4.8 km/h 67% 0.0 mm 594 W/m2
10:11 8.7 °C 2.9 °C 1019.0 hPa ENE 6.4 km/h 8 km/h 67% 0.0 mm 63 W/m2
10:16 8.8 °C 2.8 °C 1019.0 hPa East 1.4 km/h 3.2 km/h 66% 0.0 mm 118 W/m2
10:21 9 °C 3.2 °C 1019.0 hPa NE 4.7 km/h 9.7 km/h 67% 0.0 mm 613 W/m2
10:26 9.2 °C 3.2 °C 1019.0 hPa ENE 6.4 km/h 6.4 km/h 66% 0.0 mm 640 W/m2
10:31 9.2 °C 3 °C 1019.0 hPa NE 4.7 km/h 6.4 km/h 65% 0.0 mm 656 W/m2
10:36 9 °C 3 °C 1019.0 hPa North 3.2 km/h 3.2 km/h 66% 0.0 mm 663 W/m2
10:41 9.2 °C 3 °C 1019.0 hPa ENE 7.9 km/h 9.7 km/h 65% 0.0 mm 686 W/m2
10:46 9.4 °C 3.2 °C 1019.0 hPa East 4.7 km/h 6.4 km/h 65% 0.0 mm 712 W/m2
10:51 9.6 °C 2.7 °C 1019.0 hPa SW 1.4 km/h 3.2 km/h 62% 0.0 mm 754 W/m2
10:56 9.6 °C 3.1 °C 1019.0 hPa ENE 6.4 km/h 9.7 km/h 64% 0.0 mm 770 W/m2
11:01 9.7 °C 2.8 °C 1019.0 hPa NE 6.4 km/h 12.9 km/h 62% 0.0 mm 768 W/m2
11:06 9.9 °C 3 °C 1019.0 hPa East 3.2 km/h 4.8 km/h 62% 0.0 mm 172 W/m2
11:11 9.9 °C 2.7 °C 1018.6 hPa Calm   11.3 km/h 61% 0.0 mm 279 W/m2
11:16 9.9 °C 2.5 °C 1018.6 hPa NW 1.4 km/h 3.2 km/h 60% 0.0 mm 209 W/m2
11:21 9.8 °C 2.9 °C 1018.6 hPa NNE 3.2 km/h 6.4 km/h 62% 0.0 mm 858 W/m2
11:26 10 °C 2.6 °C 1018.6 hPa East 3.2 km/h 4.8 km/h 60% 0.0 mm 914 W/m2
11:31 10.6 °C 2.9 °C 1018.6 hPa East 1.4 km/h 9.7 km/h 59% 0.0 mm 990 W/m2
11:36 10.9 °C 2.2 °C 1018.6 hPa North 7.9 km/h 12.9 km/h 55% 0.0 mm 944 W/m2
11:41 10.9 °C 2.2 °C 1018.6 hPa ENE 1.4 km/h 6.4 km/h 55% 0.0 mm 817 W/m2
11:46 11 °C 1.8 °C 1018.6 hPa SE 3.2 km/h 6.4 km/h 53% 0.0 mm 877 W/m2
11:51 11.2 °C 2.2 °C 1018.3 hPa NE 9.7 km/h 14.5 km/h 54% 0.0 mm 928 W/m2
11:56 11.2 °C 2 °C 1018.6 hPa ENE 1.4 km/h 4.8 km/h 53% 0.0 mm 269 W/m2
12:01 11.1 °C 1.6 °C 1018.3 hPa North 4.7 km/h 6.4 km/h 52% 0.0 mm 854 W/m2
12:06 10.9 °C 1.7 °C 1018.3 hPa NE 4.7 km/h 4.8 km/h 53% 0.0 mm 833 W/m2
12:11 11.1 °C 2.7 °C 1018.3 hPa East 7.9 km/h 8 km/h 56% 0.0 mm 838 W/m2
12:16 11.4 °C 2.4 °C 1018.3 hPa East 6.4 km/h 6.4 km/h 54% 0.0 mm 861 W/m2
12:21 11.5 °C 1.7 °C 1018.0 hPa Calm   9.7 km/h 51% 0.0 mm 856 W/m2
12:26 11.4 °C 2.4 °C 1018.0 hPa ENE 3.2 km/h 9.7 km/h 54% 0.0 mm 863 W/m2
12:31 11.6 °C 2.9 °C 1018.0 hPa ESE 3.2 km/h 8 km/h 55% 0.0 mm 846 W/m2
12:36 11.6 °C 2.3 °C 1018.0 hPa East 6.4 km/h 8 km/h 53% 0.0 mm 891 W/m2
12:41 11.5 °C 2 °C 1018.0 hPa ESE 3.2 km/h 3.2 km/h 52% 0.0 mm 272 W/m2
12:46 11.5 °C 2.5 °C 1017.6 hPa West 3.2 km/h 6.4 km/h 54% 0.0 mm 863 W/m2
12:51 11.7 °C 2.4 °C 1017.6 hPa ENE 7.9 km/h 12.9 km/h 53% 0.0 mm 714 W/m2
12:56 11.7 °C 2.2 °C 1017.6 hPa East 13 km/h 12.9 km/h 52% 0.0 mm 846 W/m2
13:01 11.8 °C 1.7 °C 1017.6 hPa NE 3.2 km/h 4.8 km/h 50% 0.0 mm 858 W/m2
13:06 11.8 °C 2 °C 1017.3 hPa NW 3.2 km/h 8 km/h 51% 0.0 mm 830 W/m2
13:11 12 °C 3 °C 1017.3 hPa ESE 6.4 km/h 8 km/h 54% 0.0 mm 840 W/m2
13:16 12.2 °C 2.6 °C 1017.3 hPa ENE 4.7 km/h 6.4 km/h 52% 0.0 mm 844 W/m2
13:21 12.3 °C 2.4 °C 1017.3 hPa ENE 4.7 km/h 4.8 km/h 51% 0.0 mm 814 W/m2
13:27 12.5 °C 2.4 °C 1017.3 hPa Calm   4.8 km/h 50% 0.0 mm 782 W/m2
13:32 12.6 °C 2.4 °C 1017.3 hPa SE 6.4 km/h 6.4 km/h 50% 0.0 mm 802 W/m2
13:37 12.5 °C 2.4 °C 1017.3 hPa North 4.7 km/h 4.8 km/h 50% 0.0 mm 828 W/m2
13:42 12.6 °C 2.4 °C 1017.3 hPa ENE 4.7 km/h 12.9 km/h 50% 0.0 mm 821 W/m2
13:47 12.4 °C 2.5 °C 1016.9 hPa East 1.4 km/h 4.8 km/h 51% 0.0 mm 860 W/m2
13:52 12.4 °C 2.8 °C 1016.9 hPa SE 4.7 km/h 9.7 km/h 52% 0.0 mm 886 W/m2
13:57 12.5 °C 2.6 °C 1016.9 hPa ENE 4.7 km/h 9.7 km/h 51% 0.0 mm 879 W/m2
14:02 12.5 °C 2.1 °C 1016.9 hPa ESE 3.2 km/h 6.4 km/h 49% 0.0 mm 838 W/m2
14:07 12.6 °C 3.3 °C 1016.6 hPa Calm   9.7 km/h 53% 0.0 mm 872 W/m2
14:12 12.8 °C 2.6 °C 1016.6 hPa NNE 6.4 km/h 8 km/h 50% 0.0 mm 766 W/m2
14:17 12.9 °C 2.7 °C 1016.6 hPa NE 3.2 km/h 4.8 km/h 50% 0.0 mm 898 W/m2
14:22 12.9 °C 2.4 °C 1016.6 hPa East 4.7 km/h 6.4 km/h 49% 0.0 mm 826 W/m2
14:27 13 °C 1.9 °C 1016.6 hPa North 4.7 km/h 12.9 km/h 47% 0.0 mm 856 W/m2
14:32 13 °C 2.2 °C 1016.6 hPa WNW 3.2 km/h 6.4 km/h 48% 0.0 mm 566 W/m2
14:37 12.8 °C 2.1 °C 1016.6 hPa East 6.4 km/h 6.4 km/h 48% 0.0 mm 684 W/m2
14:42 12.8 °C 1.8 °C 1016.6 hPa NE 3.2 km/h 4.8 km/h 47% 0.0 mm 821 W/m2
14:47 13.1 °C 2.3 °C 1016.3 hPa WNW 3.2 km/h 6.4 km/h 48% 0.0 mm 805 W/m2
14:52 12.8 °C 2.1 °C 1016.6 hPa Calm   4.8 km/h 48% 0.0 mm 800 W/m2
14:57 12.8 °C 2.3 °C 1016.6 hPa NNW 4.7 km/h 9.7 km/h 49% 0.0 mm 754 W/m2
15:02 13.1 °C 2.6 °C 1016.6 hPa ENE 1.4 km/h 3.2 km/h 49% 0.0 mm 786 W/m2
15:07 13.3 °C 2.5 °C 1016.6 hPa ESE 3.2 km/h 12.9 km/h 48% 0.0 mm 742 W/m2
15:12 13.6 °C 3.4 °C 1016.3 hPa ENE 4.7 km/h 4.8 km/h 50% 0.0 mm 747 W/m2
15:18 13.6 °C 2.8 °C 1016.3 hPa NNW 3.2 km/h 3.2 km/h 48% 0.0 mm 636 W/m2
15:23 13.4 °C 2.9 °C 1016.3 hPa North 1.4 km/h 3.2 km/h 49% 0.0 mm 601 W/m2
15:28 13.4 °C 2.3 °C 1016.3 hPa North 1.4 km/h 6.4 km/h 47% 0.0 mm 446 W/m2
15:33 13.2 °C 2.4 °C 1015.9 hPa East 4.7 km/h 6.4 km/h 48% 0.0 mm 587 W/m2
15:38 13.2 °C 3.3 °C 1015.9 hPa NNW 1.4 km/h 3.2 km/h 51% 0.0 mm 508 W/m2
15:43 13.3 °C 2.8 °C 1015.9 hPa NNE 9.7 km/h 9.7 km/h 49% 0.0 mm 557 W/m2
15:48 13.2 °C 2.4 °C 1015.9 hPa NNW 6.4 km/h 12.9 km/h 48% 0.0 mm 452 W/m2
15:53 13.2 °C 2.7 °C 1015.9 hPa ENE 7.9 km/h 11.3 km/h 49% 0.0 mm 392 W/m2
15:58 13.2 °C 2.7 °C 1015.9 hPa ENE 3.2 km/h 4.8 km/h 49% 0.0 mm 469 W/m2
16:04 13.3 °C 3.1 °C 1015.9 hPa NNW 4.7 km/h 9.7 km/h 50% 0.0 mm 348 W/m2
16:09 13.3 °C 2.5 °C 1015.9 hPa WSW 1.4 km/h 4.8 km/h 48% 0.0 mm 599 W/m2
16:14 13.4 °C 2.3 °C 1015.6 hPa ESE 3.2 km/h 9.7 km/h 47% 0.0 mm 362 W/m2
16:19 13.3 °C 2.5 °C 1015.6 hPa Calm   4.8 km/h 48% 0.0 mm 311 W/m2
16:24 13.3 °C 2.8 °C 1015.6 hPa NNW 4.7 km/h 6.4 km/h 49% 0.0 mm 308 W/m2
16:29 13.3 °C 2.5 °C 1015.2 hPa NNW 4.7 km/h 8 km/h 48% 0.0 mm 295 W/m2
16:34 13.3 °C 2.5 °C 1015.2 hPa East 4.7 km/h 12.9 km/h 48% 0.0 mm 299 W/m2
16:39 13.2 °C 2.7 °C 1015.2 hPa NE 3.2 km/h 6.4 km/h 49% 0.0 mm 297 W/m2
16:44 13.1 °C 2.3 °C 1015.2 hPa NW 1.4 km/h 11.3 km/h 48% 0.0 mm 285 W/m2
16:49 13.1 °C 2.3 °C 1015.2 hPa ENE 1.4 km/h 1.6 km/h 48% 0.0 mm 274 W/m2
16:54 13.1 °C 2.9 °C 1015.2 hPa East 1.4 km/h 6.4 km/h 50% 0.0 mm 276 W/m2
16:59 13.1 °C 2.6 °C 1015.2 hPa ENE 1.4 km/h 6.4 km/h 49% 0.0 mm 279 W/m2
17:04 13.1 °C 2.9 °C 1015.2 hPa East 3.2 km/h 6.4 km/h 50% 0.0 mm 341 W/m2
17:09 13.1 °C 3.7 °C 1015.2 hPa ENE 3.2 km/h 3.2 km/h 53% 0.0 mm 369 W/m2
17:14 13.3 °C 3.4 °C 1015.2 hPa NNW 3.2 km/h 4.8 km/h 51% 0.0 mm 397 W/m2
17:19 13.4 °C 2.6 °C 1015.2 hPa SSE 1.4 km/h 11.3 km/h 48% 0.0 mm 336 W/m2
17:24 13.4 °C 3.5 °C 1015.2 hPa East 1.4 km/h 3.2 km/h 51% 0.0 mm 548 W/m2
17:29 13.6 °C 2.5 °C 1014.9 hPa NE 3.2 km/h 9.7 km/h 47% 0.0 mm 596 W/m2
17:34 13.9 °C 3.9 °C 1014.9 hPa East 3.2 km/h 6.4 km/h 51% 0.0 mm 545 W/m2
17:39 14 °C 2.9 °C 1014.9 hPa Calm   4.8 km/h 47% 0.0 mm 524 W/m2
17:44 14 °C 2.6 °C 1014.9 hPa ENE 3.2 km/h 6.4 km/h 46% 0.0 mm 459 W/m2
17:49 14.1 °C 3 °C 1014.9 hPa NNW 1.4 km/h 4.8 km/h 47% 0.0 mm 353 W/m2
17:54 14.2 °C 3.3 °C 1014.6 hPa NW 6.4 km/h 6.4 km/h 48% 0.0 mm 381 W/m2
17:59 14.2 °C 2.7 °C 1014.6 hPa East 4.7 km/h 8 km/h 46% 0.0 mm 246 W/m2
18:04 14.1 °C 2.6 °C 1014.6 hPa NNW 9.7 km/h 12.9 km/h 46% 0.0 mm 190 W/m2
18:09 13.8 °C 2.7 °C 1014.6 hPa West 3.2 km/h 4.8 km/h 47% 0.0 mm 195 W/m2
18:14 13.6 °C 2.2 °C 1014.6 hPa ENE 3.2 km/h 6.4 km/h 46% 0.0 mm 181 W/m2
18:19 13.3 °C 2.5 °C 1014.6 hPa Calm   6.4 km/h 48% 0.0 mm 183 W/m2
18:24 13.3 °C 2.2 °C 1014.2 hPa Calm   4.8 km/h 47% 0.0 mm 188 W/m2
18:29 13.2 °C 1.5 °C 1014.2 hPa Calm   6.4 km/h 45% 0.0 mm 207 W/m2
18:34 13.1 °C 1.7 °C 1014.2 hPa North 1.4 km/h 3.2 km/h 46% 0.0 mm 183 W/m2
18:39 13.1 °C 1.7 °C 1014.2 hPa NNW 1.4 km/h 4.8 km/h 46% 0.0 mm 181 W/m2
18:44 13.1 °C 2.3 °C 1014.2 hPa NNE 1.4 km/h 6.4 km/h 48% 0.0 mm 162 W/m2
18:49 13.1 °C 2.3 °C 1014.2 hPa ESE 1.4 km/h 11.3 km/h 48% 0.0 mm 162 W/m2
18:54 13.1 °C 2 °C 1014.2 hPa SE 4.7 km/h 6.4 km/h 47% 0.0 mm 195 W/m2
18:59 13.1 °C 2 °C 1014.2 hPa ESE 1.4 km/h 6.4 km/h 47% 0.0 mm 172 W/m2
19:04 13.1 °C 1.7 °C 1013.9 hPa ENE 6.4 km/h 6.4 km/h 46% 0.0 mm 156 W/m2
19:09 13 °C 2.5 °C 1013.9 hPa East 3.2 km/h 4.8 km/h 49% 0.0 mm 139 W/m2
19:14 12.9 °C 1.6 °C 1013.9 hPa NE 1.4 km/h 9.7 km/h 46% 0.0 mm 121 W/m2
19:19 12.8 °C 1.5 °C 1013.9 hPa NE 1.4 km/h 3.2 km/h 46% 0.0 mm 114 W/m2
19:24 12.7 °C 1.4 °C 1013.9 hPa ESE 4.7 km/h 9.7 km/h 46% 0.0 mm 120 W/m2
19:29 12.7 °C 2 °C 1013.9 hPa SE 1.4 km/h 3.2 km/h 48% 0.0 mm 97 W/m2
19:34 12.6 °C 1.9 °C 1013.9 hPa ESE 1.4 km/h 4.8 km/h 48% 0.0 mm 88 W/m2
19:39 12.6 °C 1.9 °C 1013.9 hPa Calm   3.2 km/h 48% 0.0 mm 83 W/m2
19:44 12.6 °C 3 °C 1013.5 hPa SSE 1.4 km/h 3.2 km/h 52% 0.0 mm 77 W/m2
19:49 12.4 °C 2.3 °C 1013.5 hPa NE 3.2 km/h 8 km/h 50% 0.0 mm 69 W/m2
19:54 12.3 °C 2.4 °C 1013.5 hPa NE 1.4 km/h 1.6 km/h 51% 0.0 mm 62 W/m2
19:59 12.2 °C 2.4 °C 1013.5 hPa East 3.2 km/h 8 km/h 51% 0.0 mm 58 W/m2
20:04 12.2 °C 2.4 °C 1013.5 hPa SE 1.4 km/h 1.6 km/h 51% 0.0 mm 53 W/m2
20:09 12.1 °C 3.1 °C 1013.5 hPa Calm   1.6 km/h 54% 0.0 mm 46 W/m2
20:14 11.9 °C 2.6 °C 1013.5 hPa ESE 1.4 km/h 9.7 km/h 53% 0.0 mm 40 W/m2
20:19 11.8 °C 2 °C 1013.5 hPa East 1.4 km/h 4.8 km/h 51% 0.0 mm 35 W/m2
20:24 11.7 °C 4 °C 1013.5 hPa East 1.4 km/h 9.7 km/h 59% 0.0 mm 32 W/m2
20:29 11.5 °C 2.8 °C 1013.5 hPa ESE 3.2 km/h 3.2 km/h 55% 0.0 mm 28 W/m2
20:34 11.4 °C 3.4 °C 1013.5 hPa ESE 1.4 km/h 1.6 km/h 58% 0.0 mm 28 W/m2
20:39 11.3 °C 4.3 °C 1013.5 hPa Calm   1.6 km/h 62% 0.0 mm 25 W/m2
20:44 11.1 °C 3.6 °C 1013.5 hPa ESE 3.2 km/h 3.2 km/h 60% 0.0 mm 19 W/m2
20:49 10.9 °C 3.9 °C 1013.5 hPa ESE 1.4 km/h 1.6 km/h 62% 0.0 mm 12 W/m2
20:54 10.8 °C 4.3 °C 1013.5 hPa Calm     64% 0.0 mm 9 W/m2
20:59 10.6 °C 4.3 °C 1013.2 hPa Calm     65% 0.0 mm 5 W/m2
21:04 10.4 °C 4.1 °C 1013.5 hPa Calm     65% 0.0 mm 0 W/m2
21:09 10.2 °C 3.9 °C 1013.5 hPa Calm   1.6 km/h 65% 0.0 mm 0 W/m2
21:14 10 °C 3.9 °C 1013.5 hPa Calm   1.6 km/h 66% 0.0 mm 0 W/m2
21:19 9.9 °C 4.3 °C 1013.5 hPa Calm     68% 0.0 mm 0 W/m2
21:24 9.7 °C 4.3 °C 1013.5 hPa SE 1.4 km/h 3.2 km/h 69% 0.0 mm 0 W/m2
21:29 9.5 °C 4.3 °C 1013.5 hPa SE 1.4 km/h 1.6 km/h 70% 0.0 mm 0 W/m2
21:34 9.3 °C 4.3 °C 1013.5 hPa Calm     71% 0.0 mm 0 W/m2
21:39 9.2 °C 4.2 °C 1013.5 hPa Calm     71% 0.0 mm 0 W/m2
21:45 9 °C 3.8 °C 1013.5 hPa Calm     70% 0.0 mm 0 W/m2
21:50 8.8 °C 4 °C 1013.5 hPa Calm     72% 0.0 mm 0 W/m2
21:55 8.7 °C 3.9 °C 1013.5 hPa Calm     72% 0.0 mm 0 W/m2
22:00 8.4 °C 3.6 °C 1013.5 hPa Calm     72% 0.0 mm 0 W/m2
22:05 8.2 °C 3.5 °C 1013.5 hPa Calm     72% 0.0 mm 0 W/m2
22:10 8.1 °C 3.6 °C 1013.5 hPa Calm     73% 0.0 mm 0 W/m2
22:15 7.9 °C 3.6 °C 1013.5 hPa Calm     74% 0.0 mm 0 W/m2
22:20 7.8 °C 3.5 °C 1013.5 hPa Calm     74% 0.0 mm 0 W/m2
22:25 7.8 °C 3.5 °C 1013.5 hPa Calm   3.2 km/h 74% 0.0 mm 0 W/m2
22:30 7.8 °C 3.5 °C 1013.5 hPa Calm   1.6 km/h 74% 0.0 mm 0 W/m2
22:35 7.7 °C 3.4 °C 1013.5 hPa SE 1.4 km/h 1.6 km/h 74% 0.0 mm 0 W/m2
22:40 7.7 °C 3.5 °C 1013.5 hPa Calm   1.6 km/h 75% 0.0 mm 0 W/m2
22:45 7.6 °C 3.6 °C 1013.5 hPa Calm     76% 0.0 mm 0 W/m2
22:50 7.4 °C 3.4 °C 1013.5 hPa Calm   1.6 km/h 76% 0.0 mm 0 W/m2
22:55 7.3 °C 3.3 °C 1013.5 hPa Calm     76% 0.0 mm 0 W/m2
23:00 7.2 °C 3.4 °C 1013.5 hPa Calm     77% 0.0 mm 0 W/m2
23:05 7.1 °C 3.3 °C 1013.5 hPa Calm     77% 0.0 mm 0 W/m2
23:10 7.1 °C 3.3 °C 1013.5 hPa Calm   1.6 km/h 77% 0.0 mm 0 W/m2
23:15 7.1 °C 3.3 °C 1013.2 hPa Calm     77% 0.0 mm 0 W/m2
23:20 6.9 °C 3.3 °C 1013.2 hPa Calm   1.6 km/h 78% 0.0 mm 0 W/m2
23:25 6.9 °C 3.3 °C 1013.2 hPa Calm     78% 0.0 mm 0 W/m2
23:30 6.8 °C 3.4 °C 1013.2 hPa Calm   1.6 km/h 79% 0.0 mm 0 W/m2
23:35 6.8 °C 3.4 °C 1013.5 hPa Calm     79% 0.0 mm 0 W/m2
23:40 6.7 °C 3.5 °C 1013.5 hPa Calm     80% 0.0 mm 0 W/m2
23:45 6.6 °C 3.4 °C 1013.5 hPa Calm     80% 0.0 mm 0 W/m2
23:50 6.4 °C 3.2 °C 1013.5 hPa Calm     80% 0.0 mm 0 W/m2
23:55 6.3 °C 3.1 °C 1013.2 hPa Calm     80% 0.0 mm 0 W/m2
Juneau County Weather
Compliments of Weather Underground - 2 mb